Time,TemperatureF,DewpointF,PressureIn,WindDirection,WindDirectionDegrees,WindSpeedMPH,WindSpeedGustMPH,Humidity,HourlyPrecipIn,Conditions,Clouds,dailyrainin,SoftwareType,DateUTC
2013-02-22 00:00:00,20.6,16.3,30.25,ENE,68,9.0,19.0,83,0.00,,,0.00,WUHU216DAVISVP2,2013-02-22 05:00:00,
2013-02-22 00:15:00,20.7,16.4,30.25,ENE,68,10.0,21.0,83,0.00,,,0.00,WUHU216DAVISVP2,2013-02-22 05:15:00,
2013-02-22 00:30:00,20.8,16.5,30.25,ENE,68,9.0,18.0,83,0.00,,,0.00,WUHU216DAVISVP2,2013-02-22 05:30:00,
2013-02-22 00:45:00,21.0,16.6,30.23,East,90,9.0,19.0,83,0.00,,,0.00,WUHU216DAVISVP2,2013-02-22 05:45:00,
2013-02-22 01:00:00,21.1,16.5,30.23,East,90,10.0,20.0,82,0.00,,,0.00,WUHU216DAVISVP2,2013-02-22 06:00:00,
2013-02-22 01:15:00,21.2,16.6,30.24,ENE,68,11.0,21.0,82,0.00,,,0.00,WUHU216DAVISVP2,2013-02-22 06:15:00,
2013-02-22 01:30:00,21.4,17.0,30.23,East,90,10.0,18.0,83,0.00,,,0.00,WUHU216DAVISVP2,2013-02-22 06:30:00,
2013-02-22 01:45:00,21.5,17.1,30.21,East,90,9.0,18.0,83,0.00,,,0.00,WUHU216DAVISVP2,2013-02-22 06:45:00,
2013-02-22 02:00:00,21.4,17.3,30.18,ENE,68,9.0,19.0,84,0.00,,,0.00,WUHU216DAVISVP2,2013-02-22 07:00:00,
2013-02-22 02:15:00,21.5,17.4,30.17,ENE,68,6.0,16.0,84,0.00,,,0.00,WUHU216DAVISVP2,2013-02-22 07:15:00,
2013-02-22 02:30:00,21.7,17.6,30.16,East,90,7.0,18.0,84,0.00,,,0.00,WUHU216DAVISVP2,2013-02-22 07:30:00,
2013-02-22 02:45:00,21.5,17.7,30.15,ENE,68,6.0,14.0,85,0.00,,,0.00,WUHU216DAVISVP2,2013-02-22 07:45:00,
2013-02-22 03:00:00,21.2,18.2,30.13,ENE,68,7.0,16.0,88,0.00,,,0.00,WUHU216DAVISVP2,2013-02-22 08:00:00,
2013-02-22 03:15:00,21.3,18.3,30.12,ENE,68,8.0,18.0,88,0.00,,,0.00,WUHU216DAVISVP2,2013-02-22 08:15:00,
2013-02-22 03:30:00,21.3,18.6,30.11,ENE,68,5.0,14.0,89,0.00,,,0.00,WUHU216DAVISVP2,2013-02-22 08:30:00,
2013-02-22 03:45:00,21.1,18.6,30.10,ENE,68,6.0,18.0,90,0.00,,,0.00,WUHU216DAVISVP2,2013-02-22 08:45:00,
2013-02-22 04:00:00,21.1,18.9,30.07,NE,45,6.0,14.0,91,0.00,,,0.00,WUHU216DAVISVP2,2013-02-22 09:00:00,
2013-02-22 04:15:00,21.3,19.1,30.06,NE,45,6.0,20.0,91,0.00,,,0.00,WUHU216DAVISVP2,2013-02-22 09:15:00,
2013-02-22 04:30:00,21.3,19.3,30.07,East,90,7.0,18.0,92,0.00,,,0.00,WUHU216DAVISVP2,2013-02-22 09:30:00,
2013-02-22 04:45:00,21.5,19.5,30.07,ENE,68,7.0,14.0,92,0.00,,,0.00,WUHU216DAVISVP2,2013-02-22 09:45:00,
2013-02-22 05:00:00,21.7,19.7,30.07,ENE,68,7.0,19.0,92,0.00,,,0.00,WUHU216DAVISVP2,2013-02-22 10:00:00,
2013-02-22 05:15:00,21.6,19.9,30.05,ENE,68,6.0,15.0,93,0.00,,,0.00,WUHU216DAVISVP2,2013-02-22 10:15:00,
2013-02-22 05:30:00,21.6,19.9,30.03,East,90,7.0,15.0,93,0.00,,,0.00,WUHU216DAVISVP2,2013-02-22 10:30:00,
2013-02-22 05:45:00,21.6,20.1,30.02,ENE,68,7.0,16.0,94,0.00,,,0.00,WUHU216DAVISVP2,2013-02-22 10:45:00,
2013-02-22 06:00:00,21.5,20.0,30.02,ENE,68,6.0,15.0,94,0.00,,,0.00,WUHU216DAVISVP2,2013-02-22 11:00:00,
2013-02-22 06:15:00,21.8,20.3,30.01,ENE,68,6.0,15.0,94,0.00,,,0.00,WUHU216DAVISVP2,2013-02-22 11:15:00,
2013-02-22 06:30:00,22.2,20.7,30.01,East,90,6.0,13.0,94,0.00,,,0.00,WUHU216DAVISVP2,2013-02-22 11:30:00,
2013-02-22 06:45:00,22.2,20.7,30.02,East,90,7.0,15.0,94,0.00,,,0.00,WUHU216DAVISVP2,2013-02-22 11:45:00,
2013-02-22 07:00:00,22.1,20.6,30.02,East,90,9.0,21.0,94,0.00,,,0.00,WUHU216DAVISVP2,2013-02-22 12:00:00,
2013-02-22 07:15:00,22.1,20.6,30.01,East,90,7.0,12.0,94,0.00,,,0.00,WUHU216DAVISVP2,2013-02-22 12:15:00,
2013-02-22 07:30:00,22.2,20.7,30.01,East,90,6.0,11.0,94,0.00,,,0.00,WUHU216DAVISVP2,2013-02-22 12:30:00,
2013-02-22 07:45:00,22.2,20.7,30.01,ENE,68,4.0,10.0,94,0.00,,,0.00,WUHU216DAVISVP2,2013-02-22 12:45:00,
2013-02-22 08:00:00,22.3,20.8,30.01,NE,45,5.0,10.0,94,0.00,,,0.00,WUHU216DAVISVP2,2013-02-22 13:00:00,
2013-02-22 08:15:00,22.5,21.0,30.01,NE,45,3.0,8.0,94,0.00,,,0.00,WUHU216DAVISVP2,2013-02-22 13:15:00,
2013-02-22 08:30:00,22.7,21.2,30.01,East,90,3.0,10.0,94,0.00,,,0.00,WUHU216DAVISVP2,2013-02-22 13:30:00,
2013-02-22 08:45:00,22.8,21.6,30.00,ENE,68,4.0,10.0,95,0.00,,,0.00,WUHU216DAVISVP2,2013-02-22 13:45:00,
2013-02-22 09:00:00,23.0,21.8,30.01,ENE,68,3.0,9.0,95,0.00,,,0.00,WUHU216DAVISVP2,2013-02-22 14:00:00,
2013-02-22 09:15:00,23.2,22.0,30.00,ENE,68,4.0,10.0,95,0.00,,,0.00,WUHU216DAVISVP2,2013-02-22 14:15:00,
2013-02-22 09:30:00,23.5,22.3,30.00,ENE,68,3.0,9.0,95,0.00,,,0.00,WUHU216DAVISVP2,2013-02-22 14:30:00,
2013-02-22 09:45:00,23.7,22.5,29.98,ENE,68,4.0,10.0,95,0.00,,,0.00,WUHU216DAVISVP2,2013-02-22 14:45:00,
2013-02-22 10:00:00,24.0,22.8,29.97,ENE,68,3.0,9.0,95,0.00,,,0.00,WUHU216DAVISVP2,2013-02-22 15:00:00,
2013-02-22 10:15:00,24.4,23.2,29.97,ENE,68,4.0,9.0,95,0.00,,,0.00,WUHU216DAVISVP2,2013-02-22 15:15:00,
2013-02-22 10:30:00,24.7,23.5,29.97,ENE,68,5.0,10.0,95,0.00,,,0.00,WUHU216DAVISVP2,2013-02-22 15:30:00,
2013-02-22 10:45:00,25.1,24.1,29.97,ENE,68,5.0,9.0,96,0.00,,,0.00,WUHU216DAVISVP2,2013-02-22 15:45:00,
2013-02-22 11:00:00,25.5,24.5,29.96,ENE,68,6.0,12.0,96,0.00,,,0.00,WUHU216DAVISVP2,2013-02-22 16:00:00,
2013-02-22 11:15:00,26.0,25.0,29.96,ENE,68,6.0,10.0,96,0.00,,,0.00,WUHU216DAVISVP2,2013-02-22 16:15:00,
2013-02-22 11:30:00,26.4,25.4,29.96,ENE,68,5.0,10.0,96,0.00,,,0.00,WUHU216DAVISVP2,2013-02-22 16:30:00,
2013-02-22 11:45:00,27.0,26.0,29.96,ENE,68,5.0,8.0,96,0.00,,,0.00,WUHU216DAVISVP2,2013-02-22 16:45:00,
2013-02-22 12:00:00,27.4,26.4,29.96,East,90,5.0,11.0,96,0.00,,,0.00,WUHU216DAVISVP2,2013-02-22 17:00:00,
2013-02-22 12:15:00,27.7,26.7,29.96,East,90,5.0,10.0,96,0.00,,,0.00,WUHU216DAVISVP2,2013-02-22 17:15:00,
2013-02-22 12:30:00,28.1,27.1,29.95,East,90,5.0,10.0,96,0.00,,,0.00,WUHU216DAVISVP2,2013-02-22 17:30:00,
2013-02-22 12:45:00,28.6,27.9,29.94,East,90,5.0,8.0,97,0.00,,,0.00,WUHU216DAVISVP2,2013-02-22 17:45:00,
2013-02-22 13:00:00,29.1,28.4,29.94,East,90,4.0,9.0,97,0.00,,,0.00,WUHU216DAVISVP2,2013-02-22 18:00:00,
2013-02-22 13:15:00,29.6,28.9,29.94,East,90,4.0,10.0,97,0.00,,,0.00,WUHU216DAVISVP2,2013-02-22 18:15:00,
2013-02-22 13:30:00,29.9,29.2,29.94,SE,135,3.0,7.0,97,0.00,,,0.00,WUHU216DAVISVP2,2013-02-22 18:30:00,
2013-02-22 13:45:00,30.3,29.6,29.94,East,90,4.0,7.0,97,0.00,,,0.00,WUHU216DAVISVP2,2013-02-22 18:45:00,
2013-02-22 14:00:00,30.6,29.9,29.93,East,90,4.0,8.0,97,0.00,,,0.00,WUHU216DAVISVP2,2013-02-22 19:00:00,
2013-02-22 14:15:00,31.0,30.2,29.93,East,90,3.0,6.0,97,0.00,,,0.00,WUHU216DAVISVP2,2013-02-22 19:15:00,
2013-02-22 14:30:00,31.3,30.5,29.93,ESE,113,3.0,7.0,97,0.00,,,0.00,WUHU216DAVISVP2,2013-02-22 19:30:00,
2013-02-22 14:45:00,31.6,30.8,29.93,SSE,158,3.0,8.0,97,0.00,,,0.00,WUHU216DAVISVP2,2013-02-22 19:45:00,
2013-02-22 15:00:00,31.9,31.1,29.94,SE,135,2.0,6.0,97,0.00,,,0.00,WUHU216DAVISVP2,2013-02-22 20:00:00,
2013-02-22 15:15:00,32.0,31.2,29.94,SE,135,3.0,8.0,97,0.00,,,0.00,WUHU216DAVISVP2,2013-02-22 20:15:00,
2013-02-22 15:30:00,32.1,31.6,29.93,SE,135,3.0,9.0,98,0.00,,,0.00,WUHU216DAVISVP2,2013-02-22 20:30:00,
2013-02-22 15:45:00,32.3,31.8,29.93,SSE,158,4.0,10.0,98,0.00,,,0.00,WUHU216DAVISVP2,2013-02-22 20:45:00,
2013-02-22 16:00:00,32.5,32.0,29.94,South,180,5.0,10.0,98,0.00,,,0.00,WUHU216DAVISVP2,2013-02-22 21:00:00,
2013-02-22 16:15:00,32.7,32.2,29.93,SSE,158,4.0,9.0,98,0.00,,,0.00,WUHU216DAVISVP2,2013-02-22 21:15:00,
2013-02-22 16:30:00,32.9,32.4,29.94,SSE,158,4.0,10.0,98,0.00,,,0.00,WUHU216DAVISVP2,2013-02-22 21:30:00,
2013-02-22 16:45:00,33.1,32.6,29.94,SSE,158,5.0,13.0,98,0.00,,,0.00,WUHU216DAVISVP2,2013-02-22 21:45:00,
2013-02-22 17:00:00,33.2,32.7,29.94,SSE,158,6.0,12.0,98,0.00,,,0.00,WUHU216DAVISVP2,2013-02-22 22:00:00,
2013-02-22 17:15:00,33.2,32.7,29.94,South,180,6.0,14.0,98,0.00,,,0.00,WUHU216DAVISVP2,2013-02-22 22:15:00,
2013-02-22 17:30:00,33.4,32.9,29.95,South,180,8.0,20.0,98,0.00,,,0.00,WUHU216DAVISVP2,2013-02-22 22:30:00,
2013-02-22 17:45:00,33.7,33.2,29.95,South,180,9.0,19.0,98,0.00,,,0.00,WUHU216DAVISVP2,2013-02-22 22:45:00,
2013-02-22 18:00:00,33.7,32.9,29.95,South,180,7.0,14.0,97,0.00,,,0.00,WUHU216DAVISVP2,2013-02-22 23:00:00,
2013-02-22 18:15:00,33.7,32.9,29.95,South,180,6.0,13.0,97,0.00,,,0.00,WUHU216DAVISVP2,2013-02-22 23:15:00,
2013-02-22 18:30:00,33.7,32.7,29.96,South,180,7.0,15.0,96,0.00,,,0.00,WUHU216DAVISVP2,2013-02-22 23:30:00,
2013-02-22 18:45:00,33.7,32.4,29.96,South,180,6.0,11.0,95,0.00,,,0.00,WUHU216DAVISVP2,2013-02-22 23:45:00,
2013-02-22 19:00:00,33.6,32.3,29.97,South,180,7.0,13.0,95,0.00,,,0.00,WUHU216DAVISVP2,2013-02-23 00:00:00,
2013-02-22 19:15:00,33.6,32.1,29.97,South,180,6.0,15.0,94,0.00,,,0.00,WUHU216DAVISVP2,2013-02-23 00:15:00,
2013-02-22 19:30:00,33.5,32.0,29.97,SSE,158,5.0,10.0,94,0.00,,,0.00,WUHU216DAVISVP2,2013-02-23 00:30:00,
2013-02-22 19:45:00,33.4,31.9,29.97,South,180,5.0,9.0,94,0.00,,,0.00,WUHU216DAVISVP2,2013-02-23 00:45:00,
2013-02-22 20:00:00,33.4,31.9,29.97,South,180,6.0,12.0,94,0.00,,,0.00,WUHU216DAVISVP2,2013-02-23 01:00:00,
2013-02-22 20:15:00,33.5,31.7,29.97,South,180,6.0,12.0,93,0.00,,,0.00,WUHU216DAVISVP2,2013-02-23 01:15:00,
2013-02-22 20:30:00,33.5,31.4,29.97,South,180,4.0,9.0,92,0.00,,,0.00,WUHU216DAVISVP2,2013-02-23 01:30:00,
2013-02-22 20:45:00,33.5,31.4,29.98,South,180,4.0,10.0,92,0.00,,,0.00,WUHU216DAVISVP2,2013-02-23 01:45:00,
2013-02-22 21:00:00,33.4,31.3,29.98,SSE,158,2.0,6.0,92,0.00,,,0.00,WUHU216DAVISVP2,2013-02-23 02:00:00,
2013-02-22 21:15:00,33.3,31.5,29.98,SSE,158,2.0,6.0,93,0.00,,,0.00,WUHU216DAVISVP2,2013-02-23 02:15:00,
2013-02-22 21:30:00,33.2,31.4,29.98,SSE,158,4.0,8.0,93,0.00,,,0.00,WUHU216DAVISVP2,2013-02-23 02:30:00,
2013-02-22 21:45:00,33.1,31.6,29.98,SSE,158,4.0,9.0,94,0.00,,,0.00,WUHU216DAVISVP2,2013-02-23 02:45:00,
2013-02-22 22:00:00,33.0,31.5,29.98,SSE,158,4.0,9.0,94,0.00,,,0.00,WUHU216DAVISVP2,2013-02-23 03:00:00,
2013-02-22 22:15:00,33.1,31.6,29.98,SSE,158,5.0,10.0,94,0.00,,,0.00,WUHU216DAVISVP2,2013-02-23 03:15:00,
2013-02-22 22:30:00,33.1,31.6,29.98,South,180,5.0,11.0,94,0.00,,,0.00,WUHU216DAVISVP2,2013-02-23 03:30:00,
2013-02-22 22:45:00,33.0,31.2,29.97,South,180,5.0,10.0,93,0.00,,,0.00,WUHU216DAVISVP2,2013-02-23 03:45:00,
2013-02-22 23:00:00,32.9,30.8,29.97,South,180,7.0,13.0,92,0.00,,,0.00,WUHU216DAVISVP2,2013-02-23 04:00:00,
2013-02-22 23:15:00,32.7,30.6,29.97,South,180,6.0,15.0,92,0.00,,,0.00,WUHU216DAVISVP2,2013-02-23 04:15:00,
2013-02-22 23:30:00,32.6,30.5,29.97,SSW,203,7.0,14.0,92,0.00,,,0.00,WUHU216DAVISVP2,2013-02-23 04:30:00,
2013-02-22 23:45:00,32.5,30.4,29.97,SSW,203,6.0,10.0,92,0.00,,,0.00,WUHU216DAVISVP2,2013-02-23 04:45:00,